Location: Augsburg
(48.3836°N, 10.8929°E)
Time: 04:19:24
(UTC+02:00)

ISS - Visible Passes

Search period start: 21 April 2024 00:00
Search period end: 01 May 2024 00:00
Orbit: 412 x 418 km, 51.6° (Epoch: 20 April)

Date Brightness Start Highest point End Pass type
(mag) Time Alt. Az. Time Alt. Az. Time Alt. Az.
22 Apr -2.1 05:32:06 10° SSW 05:34:56 26° SE 05:37:47 10° E visible
23 Apr -1.5 04:44:07 11° S 04:46:06 17° SE 04:48:21 10° E visible
24 Apr -1.1 03:56:57 11° SE 03:57:14 11° SE 03:58:03 10° ESE visible
24 Apr -3.3 05:30:04 10° SW 05:33:20 55° SSE 05:36:36 10° ENE visible
25 Apr -2.8 04:42:30 20° SSW 04:44:15 36° SE 04:47:21 10° ENE visible
26 Apr -2.2 03:55:04 23° SE 03:55:08 23° SE 03:57:52 10° E visible
26 Apr -3.7 05:28:13 10° WSW 05:31:34 80° NNW 05:34:54 10° ENE visible
27 Apr -1.0 03:07:32 12° ESE 03:07:32 12° ESE 03:08:03 10° E visible
27 Apr -3.8 04:40:21 23° SW 04:42:15 74° SSE 04:45:35 10° ENE visible
28 Apr -3.5 03:52:42 48° SSE 03:52:55 49° SSE 03:56:09 10° ENE visible
28 Apr -3.2 05:26:20 10° W 05:29:36 53° NNW 05:32:53 10° ENE visible
29 Apr -1.8 03:04:57 22° E 03:04:57 22° E 03:06:34 10° E visible
29 Apr -3.5 04:37:45 18° W 04:40:05 66° NNW 04:43:25 10° ENE visible
30 Apr -3.9 03:49:54 56° WSW 03:50:31 87° NNW 03:53:51 10° ENE visible
